Time,TemperatureF,DewpointF,PressureIn,WindDirection,WindDirectionDegrees,WindSpeedMPH,WindSpeedGustMPH,Humidity,HourlyPrecipIn,Conditions,Clouds,dailyrainin,SoftwareType,DateUTC
2013-05-04 00:01:00,44.0,35.2,30.07,West,271,0.0,0.0,71,0.00,,,0.00,WeatherCatV1.13B119,2013-05-04 05:01:00,
2013-05-04 00:06:00,43.9,35.1,30.06,West,271,0.0,0.0,71,0.00,,,0.00,WeatherCatV1.13B119,2013-05-04 05:06:00,
2013-05-04 00:11:00,43.7,34.9,30.06,West,271,0.0,0.0,71,0.00,,,0.00,WeatherCatV1.13B119,2013-05-04 05:11:00,
2013-05-04 00:16:00,43.6,35.2,30.06,West,271,0.0,0.0,72,0.00,,,0.00,WeatherCatV1.13B119,2013-05-04 05:16:00,
2013-05-04 00:21:00,43.5,35.1,30.06,West,271,0.0,0.0,72,0.00,,,0.00,WeatherCatV1.13B119,2013-05-04 05:21:00,
2013-05-04 00:26:00,43.4,35.3,30.06,West,271,0.0,0.0,73,0.00,,,0.00,WeatherCatV1.13B119,2013-05-04 05:26:00,
2013-05-04 00:31:00,43.3,35.2,30.06,West,271,0.0,0.0,73,0.00,,,0.00,WeatherCatV1.13B119,2013-05-04 05:31:00,
2013-05-04 00:36:00,43.2,35.8,30.06,West,271,0.0,0.0,75,0.00,,,0.00,WeatherCatV1.13B119,2013-05-04 05:36:00,
2013-05-04 00:41:00,43.2,35.8,30.05,West,271,0.0,0.0,75,0.00,,,0.00,WeatherCatV1.13B119,2013-05-04 05:41:00,
2013-05-04 00:46:00,43.1,35.4,30.05,West,272,0.0,0.0,74,0.00,,,0.00,WeatherCatV1.13B119,2013-05-04 05:46:00,
2013-05-04 00:51:00,42.7,34.7,30.06,West,272,0.0,0.0,73,0.00,,,0.00,WeatherCatV1.13B119,2013-05-04 05:51:00,
2013-05-04 00:56:00,42.3,34.6,30.06,West,272,0.0,0.0,74,0.00,,,0.00,WeatherCatV1.13B119,2013-05-04 05:56:00,
2013-05-04 01:01:00,41.9,34.9,30.06,West,272,0.0,0.0,76,0.00,,,0.00,WeatherCatV1.13B119,2013-05-04 06:01:00,
2013-05-04 01:06:00,41.8,35.1,30.05,West,272,0.0,0.0,77,0.00,,,0.00,WeatherCatV1.13B119,2013-05-04 06:06:00,
2013-05-04 01:11:00,41.8,35.1,30.05,West,272,0.0,0.0,77,0.00,,,0.00,WeatherCatV1.13B119,2013-05-04 06:11:00,
2013-05-04 01:16:00,41.8,34.8,30.05,West,272,0.0,0.0,76,0.00,,,0.00,WeatherCatV1.13B119,2013-05-04 06:16:00,
2013-05-04 01:21:00,41.8,34.8,30.04,West,272,0.0,0.0,76,0.00,,,0.00,WeatherCatV1.13B119,2013-05-04 06:21:00,
2013-05-04 01:26:00,41.6,34.6,30.04,West,272,0.0,0.0,76,0.00,,,0.00,WeatherCatV1.13B119,2013-05-04 06:26:00,
2013-05-04 01:31:00,41.5,34.5,30.04,West,272,0.0,0.0,76,0.00,,,0.00,WeatherCatV1.13B119,2013-05-04 06:31:00,
2013-05-04 01:36:00,41.3,34.6,30.04,West,272,0.0,0.0,77,0.00,,,0.00,WeatherCatV1.13B119,2013-05-04 06:36:00,
2013-05-04 01:41:00,41.2,34.5,30.04,West,272,0.0,0.0,77,0.00,,,0.00,WeatherCatV1.13B119,2013-05-04 06:41:00,
2013-05-04 01:46:00,41.0,34.4,30.04,West,272,0.0,0.0,77,0.00,,,0.00,WeatherCatV1.13B119,2013-05-04 06:46:00,
2013-05-04 01:51:00,40.8,34.5,30.03,West,272,0.0,0.0,78,0.00,,,0.00,WeatherCatV1.13B119,2013-05-04 06:51:00,
2013-05-04 01:56:00,40.7,34.4,30.03,West,272,0.0,0.0,78,0.00,,,0.00,WeatherCatV1.13B119,2013-05-04 06:56:00,
2013-05-04 02:01:00,40.6,34.6,30.03,West,272,0.0,0.0,79,0.00,,,0.00,WeatherCatV1.13B119,2013-05-04 07:01:00,
2013-05-04 02:06:00,40.5,34.8,30.03,West,272,0.0,0.0,80,0.00,,,0.00,WeatherCatV1.13B119,2013-05-04 07:06:00,
2013-05-04 02:11:00,40.3,34.6,30.03,West,272,0.0,0.0,80,0.00,,,0.00,WeatherCatV1.13B119,2013-05-04 07:11:00,
2013-05-04 02:16:00,40.0,34.3,30.03,West,272,0.0,0.0,80,0.00,,,0.00,WeatherCatV1.13B119,2013-05-04 07:16:00,
2013-05-04 02:21:00,39.9,34.6,30.03,West,272,0.0,0.0,81,0.00,,,0.00,WeatherCatV1.13B119,2013-05-04 07:21:00,
2013-05-04 02:26:00,39.9,34.6,30.02,West,272,0.0,0.0,81,0.00,,,0.00,WeatherCatV1.13B119,2013-05-04 07:26:00,
2013-05-04 02:31:00,39.8,34.5,30.02,West,272,0.0,0.0,81,0.00,,,0.00,WeatherCatV1.13B119,2013-05-04 07:31:00,
2013-05-04 02:36:00,39.7,34.7,30.02,West,272,0.0,0.0,82,0.00,,,0.00,WeatherCatV1.13B119,2013-05-04 07:36:00,
2013-05-04 02:41:00,39.7,34.7,30.02,West,272,0.0,0.0,82,0.00,,,0.00,WeatherCatV1.13B119,2013-05-04 07:41:00,
2013-05-04 02:46:00,39.5,34.5,30.01,West,274,0.0,0.0,82,0.00,,,0.00,WeatherCatV1.13B119,2013-05-04 07:46:00,
2013-05-04 02:51:00,39.3,34.3,30.01,West,274,0.0,0.0,82,0.00,,,0.00,WeatherCatV1.13B119,2013-05-04 07:51:00,
2013-05-04 02:56:00,39.1,34.1,30.01,West,273,0.0,0.0,82,0.00,,,0.00,WeatherCatV1.13B119,2013-05-04 07:56:00,
2013-05-04 03:01:00,39.0,34.3,30.01,West,274,0.0,0.0,83,0.00,,,0.00,WeatherCatV1.13B119,2013-05-04 08:01:00,
2013-05-04 03:06:00,38.8,34.1,30.01,West,274,0.0,0.0,83,0.00,,,0.00,WeatherCatV1.13B119,2013-05-04 08:06:00,
2013-05-04 03:11:00,38.7,34.0,30.01,West,273,0.0,0.0,83,0.00,,,0.00,WeatherCatV1.13B119,2013-05-04 08:11:00,
2013-05-04 03:16:00,38.7,34.0,30.00,West,274,0.0,0.0,83,0.00,,,0.00,WeatherCatV1.13B119,2013-05-04 08:16:00,
2013-05-04 03:21:00,38.6,34.2,30.00,West,273,0.0,0.0,84,0.00,,,0.00,WeatherCatV1.13B119,2013-05-04 08:21:00,
2013-05-04 03:26:00,38.4,34.3,30.00,West,274,0.0,0.0,85,0.00,,,0.00,WeatherCatV1.13B119,2013-05-04 08:26:00,
2013-05-04 03:31:00,38.5,34.4,30.00,West,274,0.0,0.0,85,0.00,,,0.00,WeatherCatV1.13B119,2013-05-04 08:31:00,
2013-05-04 03:36:00,38.4,34.0,30.00,West,273,0.0,0.0,84,0.00,,,0.00,WeatherCatV1.13B119,2013-05-04 08:36:00,
2013-05-04 03:41:00,38.3,33.9,30.00,West,273,0.0,0.0,84,0.00,,,0.00,WeatherCatV1.13B119,2013-05-04 08:41:00,
2013-05-04 03:46:00,38.3,33.9,30.00,West,274,0.0,0.0,84,0.00,,,0.00,WeatherCatV1.13B119,2013-05-04 08:46:00,
2013-05-04 03:51:00,38.1,34.0,30.00,West,274,0.0,0.0,85,0.00,,,0.00,WeatherCatV1.13B119,2013-05-04 08:51:00,
2013-05-04 03:56:00,38.0,33.9,30.00,West,274,0.0,0.0,85,0.00,,,0.00,WeatherCatV1.13B119,2013-05-04 08:56:00,
2013-05-04 04:01:00,38.0,34.2,30.00,West,274,0.0,0.0,86,0.00,,,0.00,WeatherCatV1.13B119,2013-05-04 09:01:00,
2013-05-04 04:06:00,37.9,34.1,30.00,West,273,0.0,0.0,86,0.00,,,0.00,WeatherCatV1.13B119,2013-05-04 09:06:00,
2013-05-04 04:11:00,38.0,34.2,30.00,West,273,0.0,0.0,86,0.00,,,0.00,WeatherCatV1.13B119,2013-05-04 09:11:00,
2013-05-04 04:16:00,37.9,33.8,30.00,West,273,0.0,0.0,85,0.00,,,0.00,WeatherCatV1.13B119,2013-05-04 09:16:00,
2013-05-04 04:21:00,37.7,33.9,30.00,West,274,0.0,0.0,86,0.00,,,0.00,WeatherCatV1.13B119,2013-05-04 09:21:00,
2013-05-04 04:26:00,37.6,34.1,30.00,West,273,0.0,0.0,87,0.00,,,0.00,WeatherCatV1.13B119,2013-05-04 09:26:00,
2013-05-04 04:31:00,37.5,34.0,30.00,West,273,0.0,0.0,87,0.00,,,0.00,WeatherCatV1.13B119,2013-05-04 09:31:00,
2013-05-04 04:36:00,37.5,34.0,29.99,West,273,0.0,0.0,87,0.00,,,0.00,WeatherCatV1.13B119,2013-05-04 09:36:00,
2013-05-04 04:41:00,37.6,34.1,29.99,West,274,0.0,0.0,87,0.00,,,0.00,WeatherCatV1.13B119,2013-05-04 09:41:00,
2013-05-04 04:46:00,37.5,34.3,29.99,West,273,0.0,0.0,88,0.00,,,0.00,WeatherCatV1.13B119,2013-05-04 09:46:00,
2013-05-04 04:51:00,37.6,34.1,29.99,West,273,0.0,0.0,87,0.00,,,0.00,WeatherCatV1.13B119,2013-05-04 09:51:00,
2013-05-04 04:56:00,37.5,34.0,29.99,West,274,0.0,0.0,87,0.00,,,0.00,WeatherCatV1.13B119,2013-05-04 09:56:00,
2013-05-04 05:01:00,37.2,33.7,29.99,West,273,0.0,0.0,87,0.00,,,0.00,WeatherCatV1.13B119,2013-05-04 10:01:00,
2013-05-04 05:06:00,37.0,33.5,29.99,West,273,0.0,0.0,87,0.00,,,0.00,WeatherCatV1.13B119,2013-05-04 10:06:00,
2013-05-04 05:11:00,36.8,33.3,29.99,West,274,0.0,0.0,87,0.00,,,0.00,WeatherCatV1.13B119,2013-05-04 10:11:00,
2013-05-04 05:16:00,36.6,33.4,29.99,West,273,0.0,0.0,88,0.00,,,0.00,WeatherCatV1.13B119,2013-05-04 10:16:00,
2013-05-04 05:21:00,36.6,33.7,29.99,West,274,0.0,0.0,89,0.00,,,0.00,WeatherCatV1.13B119,2013-05-04 10:21:00,
2013-05-04 05:26:00,36.7,33.5,29.99,West,273,0.0,0.0,88,0.00,,,0.00,WeatherCatV1.13B119,2013-05-04 10:26:00,
2013-05-04 05:31:00,36.7,33.5,29.99,West,273,0.0,0.0,88,0.00,,,0.00,WeatherCatV1.13B119,2013-05-04 10:31:00,
2013-05-04 05:36:00,36.6,33.4,29.99,West,274,0.0,0.0,88,0.00,,,0.00,WeatherCatV1.13B119,2013-05-04 10:36:00,
2013-05-04 05:41:00,36.5,33.3,29.99,West,274,0.0,0.0,88,0.00,,,0.00,WeatherCatV1.13B119,2013-05-04 10:41:00,
2013-05-04 05:46:00,36.4,32.9,29.99,West,273,0.0,0.0,87,0.00,,,0.00,WeatherCatV1.13B119,2013-05-04 10:46:00,
2013-05-04 05:51:00,36.4,32.9,29.99,West,273,0.0,0.0,87,0.00,,,0.00,WeatherCatV1.13B119,2013-05-04 10:51:00,
2013-05-04 05:56:00,36.4,33.2,30.00,West,274,0.0,0.0,88,0.00,,,0.00,WeatherCatV1.13B119,2013-05-04 10:56:00,
2013-05-04 06:01:00,36.4,33.2,30.00,West,274,0.0,0.0,88,0.00,,,0.00,WeatherCatV1.13B119,2013-05-04 11:01:00,
2013-05-04 06:06:00,36.2,33.0,30.00,West,274,0.0,0.0,88,0.00,,,0.00,WeatherCatV1.13B119,2013-05-04 11:06:00,
2013-05-04 06:11:00,36.1,32.9,30.00,West,274,0.0,0.0,88,0.00,,,0.00,WeatherCatV1.13B119,2013-05-04 11:11:00,
2013-05-04 06:16:00,36.0,32.8,30.00,West,274,0.0,0.0,88,0.00,,,0.00,WeatherCatV1.13B119,2013-05-04 11:16:00,
2013-05-04 06:21:00,36.0,32.8,30.00,West,274,0.0,0.0,88,0.00,,,0.00,WeatherCatV1.13B119,2013-05-04 11:21:00,
2013-05-04 06:26:00,36.0,33.1,30.00,West,273,0.0,0.0,89,0.00,,,0.00,WeatherCatV1.13B119,2013-05-04 11:26:00,
2013-05-04 06:31:00,35.9,33.0,30.00,West,273,0.0,0.0,89,0.00,,,0.00,WeatherCatV1.13B119,2013-05-04 11:31:00,
2013-05-04 06:36:00,35.8,32.9,30.00,West,274,0.0,0.0,89,0.00,,,0.00,WeatherCatV1.13B119,2013-05-04 11:36:00,
2013-05-04 06:41:00,35.9,33.3,30.00,West,274,0.0,0.0,90,0.00,,,0.00,WeatherCatV1.13B119,2013-05-04 11:41:00,
2013-05-04 06:46:00,36.0,33.4,30.00,West,273,0.0,0.0,90,0.00,,,0.00,WeatherCatV1.13B119,2013-05-04 11:46:00,
2013-05-04 06:51:00,36.1,33.5,30.01,West,274,0.0,0.0,90,0.00,,,0.00,WeatherCatV1.13B119,2013-05-04 11:51:00,
2013-05-04 06:56:00,36.1,33.5,30.00,West,273,0.0,0.0,90,0.00,,,0.00,WeatherCatV1.13B119,2013-05-04 11:56:00,
2013-05-04 07:01:00,36.3,33.7,30.01,West,273,0.0,0.0,90,0.00,,,0.00,WeatherCatV1.13B119,2013-05-04 12:01:00,
2013-05-04 07:06:00,36.4,33.8,30.01,West,273,0.0,0.0,90,0.00,,,0.00,WeatherCatV1.13B119,2013-05-04 12:06:00,
2013-05-04 07:11:00,36.6,33.9,30.01,West,274,0.0,0.0,90,0.00,,,0.00,WeatherCatV1.13B119,2013-05-04 12:11:00,
2013-05-04 07:16:00,36.8,34.1,30.01,West,273,0.0,0.0,90,0.00,,,0.00,WeatherCatV1.13B119,2013-05-04 12:16:00,
2013-05-04 07:21:00,36.9,34.2,30.01,West,273,0.0,0.0,90,0.00,,,0.00,WeatherCatV1.13B119,2013-05-04 12:21:00,
2013-05-04 07:26:00,37.3,34.6,30.02,West,273,0.0,0.0,90,0.00,,,0.00,WeatherCatV1.13B119,2013-05-04 12:26:00,
2013-05-04 07:31:00,37.7,35.0,30.02,West,273,0.0,0.0,90,0.00,,,0.00,WeatherCatV1.13B119,2013-05-04 12:31:00,
2013-05-04 07:36:00,38.1,35.4,30.02,West,273,0.0,0.0,90,0.00,,,0.00,WeatherCatV1.13B119,2013-05-04 12:36:00,
2013-05-04 07:41:00,38.7,36.0,30.02,West,274,0.0,0.0,90,0.00,,,0.00,WeatherCatV1.13B119,2013-05-04 12:41:00,
2013-05-04 07:46:00,39.3,36.6,30.02,West,273,0.0,0.0,90,0.00,,,0.00,WeatherCatV1.13B119,2013-05-04 12:46:00,
2013-05-04 07:51:00,40.0,37.3,30.02,West,274,0.0,0.0,90,0.00,,,0.00,WeatherCatV1.13B119,2013-05-04 12:51:00,
2013-05-04 07:56:00,41.1,38.1,30.02,West,273,0.0,0.0,89,0.00,,,0.00,WeatherCatV1.13B119,2013-05-04 12:56:00,
2013-05-04 08:01:00,42.3,38.7,30.03,West,274,0.0,0.0,87,0.00,,,0.00,WeatherCatV1.13B119,2013-05-04 13:01:00,
2013-05-04 08:06:00,43.3,39.4,30.03,West,273,0.0,0.0,86,0.00,,,0.00,WeatherCatV1.13B119,2013-05-04 13:06:00,
2013-05-04 08:11:00,44.2,39.1,30.03,West,274,0.0,0.0,82,0.00,,,0.00,WeatherCatV1.13B119,2013-05-04 13:11:00,
2013-05-04 08:16:00,45.0,39.5,30.03,West,274,0.0,0.0,81,0.00,,,0.00,WeatherCatV1.13B119,2013-05-04 13:16:00,
2013-05-04 08:21:00,45.7,39.9,30.03,West,274,0.0,0.0,80,0.00,,,0.00,WeatherCatV1.13B119,2013-05-04 13:21:00,
2013-05-04 08:26:00,46.4,40.2,30.03,West,273,0.0,0.0,79,0.00,,,0.00,WeatherCatV1.13B119,2013-05-04 13:26:00,
2013-05-04 08:31:00,47.1,40.6,30.03,West,271,0.0,0.0,78,0.00,,,0.00,WeatherCatV1.13B119,2013-05-04 13:31:00,
2013-05-04 08:36:00,47.7,40.5,30.03,ESE,122,0.0,0.0,76,0.00,,,0.00,WeatherCatV1.13B119,2013-05-04 13:36:00,
2013-05-04 08:41:00,48.4,40.8,30.03,SE,139,0.0,0.0,75,0.00,,,0.00,WeatherCatV1.13B119,2013-05-04 13:41:00,
2013-05-04 08:46:00,49.0,41.1,30.03,SE,141,0.0,0.0,74,0.00,,,0.00,WeatherCatV1.13B119,2013-05-04 13:46:00,
2013-05-04 08:51:00,49.7,40.3,30.03,SE,139,0.0,0.0,70,0.00,,,0.00,WeatherCatV1.13B119,2013-05-04 13:51:00,
2013-05-04 08:56:00,50.6,40.4,30.03,ESE,104,0.0,0.0,68,0.00,,,0.00,WeatherCatV1.13B119,2013-05-04 13:56:00,
2013-05-04 09:01:00,51.5,40.9,30.03,East,100,0.0,0.0,67,0.00,,,0.00,WeatherCatV1.13B119,2013-05-04 14:01:00,
2013-05-04 09:06:00,52.0,40.6,30.03,ESE,104,0.0,0.0,65,0.00,,,0.00,WeatherCatV1.13B119,2013-05-04 14:06:00,
2013-05-04 09:11:00,52.7,41.3,30.03,ESE,119,0.0,0.0,65,0.00,,,0.00,WeatherCatV1.13B119,2013-05-04 14:11:00,
2013-05-04 09:16:00,53.5,41.2,30.03,SSE,152,0.0,0.0,63,0.00,,,0.00,WeatherCatV1.13B119,2013-05-04 14:16:00,
2013-05-04 09:21:00,54.2,41.0,30.03,SSW,212,1.0,1.0,61,0.00,,,0.00,WeatherCatV1.13B119,2013-05-04 14:21:00,
2013-05-04 09:26:00,54.9,41.7,30.03,SSW,199,0.0,0.0,61,0.00,,,0.00,WeatherCatV1.13B119,2013-05-04 14:26:00,
2013-05-04 09:31:00,55.7,41.2,30.02,SE,143,1.0,1.0,58,0.00,,,0.00,WeatherCatV1.13B119,2013-05-04 14:31:00,
2013-05-04 09:36:00,56.7,41.2,30.02,SE,131,0.0,1.0,56,0.00,,,0.00,WeatherCatV1.13B119,2013-05-04 14:36:00,
2013-05-04 09:41:00,58.0,41.9,30.02,SW,223,0.0,0.0,55,0.00,,,0.00,WeatherCatV1.13B119,2013-05-04 14:41:00,
2013-05-04 09:46:00,59.5,39.8,30.02,West,262,0.0,1.0,48,0.00,,,0.00,WeatherCatV1.13B119,2013-05-04 14:46:00,
2013-05-04 09:51:00,61.5,38.8,30.02,SSW,205,2.0,5.0,43,0.00,,,0.00,WeatherCatV1.13B119,2013-05-04 14:51:00,
2013-05-04 09:56:00,63.2,37.8,30.02,West,278,0.0,4.0,39,0.00,,,0.00,WeatherCatV1.13B119,2013-05-04 14:56:00,
2013-05-04 10:01:00,64.5,39.6,30.02,North,1,1.0,5.0,40,0.00,,,0.00,WeatherCatV1.13B119,2013-05-04 15:01:00,
2013-05-04 10:06:00,65.4,37.0,30.01,SW,214,1.0,6.0,35,0.00,,,0.00,WeatherCatV1.13B119,2013-05-04 15:06:00,
2013-05-04 10:11:00,66.5,38.0,30.01,NW,309,2.0,3.0,35,0.00,,,0.00,WeatherCatV1.13B119,2013-05-04 15:11:00,
2013-05-04 10:16:00,67.3,36.4,30.01,SSW,205,3.0,6.0,32,0.00,,,0.00,WeatherCatV1.13B119,2013-05-04 15:16:00,
2013-05-04 10:21:00,68.3,36.5,30.01,NNW,332,3.0,6.0,31,0.00,,,0.00,WeatherCatV1.13B119,2013-05-04 15:21:00,
2013-05-04 10:26:00,68.9,36.2,30.01,West,263,1.0,4.0,30,0.00,,,0.00,WeatherCatV1.13B119,2013-05-04 15:26:00,
2013-05-04 10:31:00,69.3,35.7,30.01,WSW,249,3.0,6.0,29,0.00,,,0.00,WeatherCatV1.13B119,2013-05-04 15:31:00,
2013-05-04 10:36:00,70.2,37.3,30.01,West,267,4.0,6.0,30,0.00,,,0.00,WeatherCatV1.13B119,2013-05-04 15:36:00,
2013-05-04 10:41:00,71.1,35.4,30.01,WSW,251,3.0,6.0,27,0.00,,,0.00,WeatherCatV1.13B119,2013-05-04 15:41:00,
2013-05-04 10:46:00,71.5,33.8,30.01,South,190,4.0,4.0,25,0.00,,,0.00,WeatherCatV1.13B119,2013-05-04 15:46:00,
2013-05-04 10:51:00,72.2,33.4,30.00,South,181,4.0,8.0,24,0.00,,,0.00,WeatherCatV1.13B119,2013-05-04 15:51:00,
2013-05-04 10:56:00,72.8,33.9,30.01,South,171,2.0,9.0,24,0.00,,,0.00,WeatherCatV1.13B119,2013-05-04 15:56:00,
2013-05-04 11:01:00,73.4,32.2,30.00,NW,307,1.0,6.0,22,0.00,,,0.00,WeatherCatV1.13B119,2013-05-04 16:01:00,
2013-05-04 11:06:00,73.8,33.7,30.00,WSW,253,2.0,3.0,23,0.00,,,0.00,WeatherCatV1.13B119,2013-05-04 16:06:00,
2013-05-04 11:11:00,74.6,33.2,30.00,WNW,285,3.0,4.0,22,0.00,,,0.00,WeatherCatV1.13B119,2013-05-04 16:11:00,
2013-05-04 11:16:00,74.9,33.5,30.00,NNW,340,2.0,7.0,22,0.00,,,0.00,WeatherCatV1.13B119,2013-05-04 16:16:00,
2013-05-04 11:21:00,75.2,33.7,30.00,North,8,1.0,5.0,22,0.00,,,0.00,WeatherCatV1.13B119,2013-05-04 16:21:00,
2013-05-04 11:26:00,75.3,32.7,30.00,SW,229,4.0,5.0,21,0.00,,,0.00,WeatherCatV1.13B119,2013-05-04 16:26:00,
2013-05-04 11:31:00,75.7,31.8,30.00,WSW,247,3.0,6.0,20,0.00,,,0.00,WeatherCatV1.13B119,2013-05-04 16:31:00,
2013-05-04 11:36:00,75.8,31.9,30.00,SW,235,2.0,6.0,20,0.00,,,0.00,WeatherCatV1.13B119,2013-05-04 16:36:00,
2013-05-04 11:41:00,76.1,32.1,30.00,West,273,3.0,5.0,20,0.00,,,0.00,WeatherCatV1.13B119,2013-05-04 16:41:00,
2013-05-04 11:46:00,76.4,32.4,29.99,ESE,117,2.0,7.0,20,0.00,,,0.00,WeatherCatV1.13B119,2013-05-04 16:46:00,
2013-05-04 11:51:00,77.0,34.1,29.99,WSW,253,2.0,5.0,21,0.00,,,0.00,WeatherCatV1.13B119,2013-05-04 16:51:00,
2013-05-04 11:56:00,77.5,33.3,29.99,SSE,148,6.0,8.0,20,0.00,,,0.00,WeatherCatV1.13B119,2013-05-04 16:56:00,
2013-05-04 12:01:00,78.3,32.6,29.99,SW,219,2.0,3.0,19,0.00,,,0.00,WeatherCatV1.13B119,2013-05-04 17:01:00,
2013-05-04 12:06:00,78.1,32.5,29.99,SSW,201,2.0,6.0,19,0.00,,,0.00,WeatherCatV1.13B119,2013-05-04 17:06:00,
2013-05-04 12:11:00,77.9,33.6,29.98,SW,235,3.0,4.0,20,0.00,,,0.00,WeatherCatV1.13B119,2013-05-04 17:11:00,
2013-05-04 12:16:00,78.8,35.5,29.98,SSW,203,2.0,4.0,21,0.00,,,0.00,WeatherCatV1.13B119,2013-05-04 17:16:00,
2013-05-04 12:22:00,79.0,35.7,29.98,SSE,150,2.0,6.0,21,0.00,,,0.00,WeatherCatV1.13B119,2013-05-04 17:22:00,
2013-05-04 12:27:00,79.6,35.0,29.98,WNW,293,1.0,2.0,20,0.00,,,0.00,WeatherCatV1.13B119,2013-05-04 17:27:00,
2013-05-04 12:32:00,79.9,32.6,29.97,WSW,252,1.0,3.0,18,0.00,,,0.00,WeatherCatV1.13B119,2013-05-04 17:32:00,
2013-05-04 12:37:00,80.4,33.0,29.97,NW,311,2.0,3.0,18,0.00,,,0.00,WeatherCatV1.13B119,2013-05-04 17:37:00,
2013-05-04 12:42:00,80.5,31.7,29.97,NNE,20,3.0,4.0,17,0.00,,,0.00,WeatherCatV1.13B119,2013-05-04 17:42:00,
2013-05-04 12:47:00,80.3,30.0,29.97,NE,46,2.0,4.0,16,0.00,,,0.00,WeatherCatV1.13B119,2013-05-04 17:47:00,
2013-05-04 12:52:00,80.0,29.8,29.96,WSW,246,2.0,6.0,16,0.00,,,0.00,WeatherCatV1.13B119,2013-05-04 17:52:00,
2013-05-04 12:57:00,80.5,31.7,29.96,SW,221,0.0,8.0,17,0.00,,,0.00,WeatherCatV1.13B119,2013-05-04 17:57:00,
2013-05-04 13:02:00,81.1,30.6,29.96,WNW,287,1.0,5.0,16,0.00,,,0.00,WeatherCatV1.13B119,2013-05-04 18:02:00,
2013-05-04 13:07:00,81.7,27.9,29.95,SSW,213,1.0,3.0,14,0.00,,,0.00,WeatherCatV1.13B119,2013-05-04 18:07:00,
2013-05-04 13:12:00,82.5,30.2,29.95,NW,308,2.0,4.0,15,0.00,,,0.00,WeatherCatV1.13B119,2013-05-04 18:12:00,
2013-05-04 13:17:00,82.7,31.9,29.95,SW,220,3.0,5.0,16,0.00,,,0.00,WeatherCatV1.13B119,2013-05-04 18:17:00,
2013-05-04 13:22:00,82.2,29.9,29.95,SW,221,2.0,7.0,15,0.00,,,0.00,WeatherCatV1.13B119,2013-05-04 18:22:00,
2013-05-04 13:27:00,81.7,32.6,29.95,SE,146,3.0,4.0,17,0.00,,,0.00,WeatherCatV1.13B119,2013-05-04 18:27:00,
2013-05-04 13:32:00,81.7,31.1,29.94,South,179,1.0,5.0,16,0.00,,,0.00,WeatherCatV1.13B119,2013-05-04 18:32:00,
2013-05-04 13:37:00,82.0,31.4,29.94,NNW,340,2.0,5.0,16,0.00,,,0.00,WeatherCatV1.13B119,2013-05-04 18:37:00,
2013-05-04 13:42:00,81.7,32.6,29.94,WSW,242,2.0,3.0,17,0.00,,,0.00,WeatherCatV1.13B119,2013-05-04 18:42:00,
2013-05-04 13:47:00,81.9,32.8,29.94,North,349,3.0,5.0,17,0.00,,,0.00,WeatherCatV1.13B119,2013-05-04 18:47:00,
2013-05-04 13:52:00,82.5,31.8,29.94,WSW,251,2.0,11.0,16,0.00,,,0.00,WeatherCatV1.13B119,2013-05-04 18:52:00,
2013-05-04 13:57:00,83.0,30.6,29.93,NW,309,2.0,3.0,15,0.00,,,0.00,WeatherCatV1.13B119,2013-05-04 18:57:00,
2013-05-04 14:02:00,83.5,32.6,29.93,NW,312,1.0,7.0,16,0.00,,,0.00,WeatherCatV1.13B119,2013-05-04 19:02:00,
2013-05-04 14:07:00,83.7,31.1,29.93,SW,214,1.0,4.0,15,0.00,,,0.00,WeatherCatV1.13B119,2013-05-04 19:07:00,
2013-05-04 14:12:00,84.0,31.4,29.93,South,180,4.0,6.0,15,0.00,,,0.00,WeatherCatV1.13B119,2013-05-04 19:12:00,
2013-05-04 14:17:00,83.0,30.6,29.93,WNW,291,3.0,7.0,15,0.00,,,0.00,WeatherCatV1.13B119,2013-05-04 19:17:00,
2013-05-04 14:22:00,82.9,30.5,29.93,WNW,296,2.0,5.0,15,0.00,,,0.00,WeatherCatV1.13B119,2013-05-04 19:22:00,
2013-05-04 14:27:00,83.5,29.3,29.93,SSW,213,6.0,7.0,14,0.00,,,0.00,WeatherCatV1.13B119,2013-05-04 19:27:00,
2013-05-04 14:32:00,83.5,32.6,29.93,ESE,120,0.0,4.0,16,0.00,,,0.00,WeatherCatV1.13B119,2013-05-04 19:32:00,
2013-05-04 14:37:00,83.8,31.2,29.92,West,271,2.0,6.0,15,0.00,,,0.00,WeatherCatV1.13B119,2013-05-04 19:37:00,
2013-05-04 14:42:00,84.6,33.4,29.92,SW,226,2.0,4.0,16,0.00,,,0.00,WeatherCatV1.13B119,2013-05-04 19:42:00,
2013-05-04 14:47:00,84.8,32.0,29.92,North,354,3.0,5.0,15,0.00,,,0.00,WeatherCatV1.13B119,2013-05-04 19:47:00,
2013-05-04 14:52:00,84.7,30.2,29.92,WNW,290,0.0,2.0,14,0.00,,,0.00,WeatherCatV1.13B119,2013-05-04 19:52:00,
2013-05-04 14:57:00,84.4,33.3,29.92,SSW,210,0.0,1.0,16,0.00,,,0.00,WeatherCatV1.13B119,2013-05-04 19:57:00,
2013-05-04 15:02:00,86.0,31.2,29.91,West,262,1.0,2.0,14,0.00,,,0.00,WeatherCatV1.13B119,2013-05-04 20:02:00,
2013-05-04 15:07:00,85.8,27.3,29.91,North,6,3.0,3.0,12,0.00,,,0.00,WeatherCatV1.13B119,2013-05-04 20:07:00,
2013-05-04 15:12:00,85.4,28.9,29.91,WNW,300,3.0,5.0,13,0.00,,,0.00,WeatherCatV1.13B119,2013-05-04 20:12:00,
2013-05-04 15:17:00,85.3,30.7,29.90,WSW,251,0.0,2.0,14,0.00,,,0.00,WeatherCatV1.13B119,2013-05-04 20:17:00,
2013-05-04 15:22:00,85.6,30.9,29.90,SE,143,0.0,5.0,14,0.00,,,0.00,WeatherCatV1.13B119,2013-05-04 20:22:00,
2013-05-04 15:27:00,85.5,30.8,29.90,West,264,2.0,5.0,14,0.00,,,0.00,WeatherCatV1.13B119,2013-05-04 20:27:00,
2013-05-04 15:32:00,85.1,32.2,29.90,West,278,2.0,2.0,15,0.00,,,0.00,WeatherCatV1.13B119,2013-05-04 20:32:00,
2013-05-04 15:37:00,84.8,30.3,29.89,ENE,71,1.0,4.0,14,0.00,,,0.00,WeatherCatV1.13B119,2013-05-04 20:37:00,
2013-05-04 15:42:00,85.4,28.9,29.89,West,271,1.0,3.0,13,0.00,,,0.00,WeatherCatV1.13B119,2013-05-04 20:42:00,
2013-05-04 15:47:00,85.2,32.3,29.89,WNW,292,1.0,6.0,15,0.00,,,0.00,WeatherCatV1.13B119,2013-05-04 20:47:00,
2013-05-04 15:52:00,84.4,30.0,29.89,North,3,2.0,3.0,14,0.00,,,0.00,WeatherCatV1.13B119,2013-05-04 20:52:00,
2013-05-04 15:57:00,83.8,29.5,29.88,West,274,1.0,3.0,14,0.00,,,0.00,WeatherCatV1.13B119,2013-05-04 20:57:00,
2013-05-04 16:02:00,84.4,30.0,29.88,NW,304,0.0,2.0,14,0.00,,,0.00,WeatherCatV1.13B119,2013-05-04 21:02:00,
2013-05-04 16:07:00,85.5,29.0,29.88,SSW,210,1.0,5.0,13,0.00,,,0.00,WeatherCatV1.13B119,2013-05-04 21:07:00,
2013-05-04 16:12:00,84.8,30.3,29.88,WNW,287,2.0,3.0,14,0.00,,,0.00,WeatherCatV1.13B119,2013-05-04 21:12:00,
2013-05-04 16:17:00,84.0,29.7,29.88,WNW,293,2.0,4.0,14,0.00,,,0.00,WeatherCatV1.13B119,2013-05-04 21:17:00,
2013-05-04 16:22:00,84.3,28.1,29.88,NW,306,0.0,1.0,13,0.00,,,0.00,WeatherCatV1.13B119,2013-05-04 21:22:00,
2013-05-04 16:27:00,85.1,28.7,29.87,NNW,327,2.0,4.0,13,0.00,,,0.00,WeatherCatV1.13B119,2013-05-04 21:27:00,
2013-05-04 16:32:00,85.0,28.6,29.87,WNW,283,2.0,2.0,13,0.00,,,0.00,WeatherCatV1.13B119,2013-05-04 21:32:00,
2013-05-04 16:37:00,83.8,31.2,29.87,WNW,288,1.0,3.0,15,0.00,,,0.00,WeatherCatV1.13B119,2013-05-04 21:37:00,
2013-05-04 16:42:00,83.4,29.2,29.87,NW,321,0.0,2.0,14,0.00,,,0.00,WeatherCatV1.13B119,2013-05-04 21:42:00,
2013-05-04 16:47:00,83.7,27.6,29.87,WSW,248,2.0,5.0,13,0.00,,,0.00,WeatherCatV1.13B119,2013-05-04 21:47:00,
2013-05-04 16:52:00,83.2,29.0,29.86,WSW,246,0.0,3.0,14,0.00,,,0.00,WeatherCatV1.13B119,2013-05-04 21:52:00,
2013-05-04 16:57:00,83.7,31.1,29.87,NNE,33,4.0,5.0,15,0.00,,,0.00,WeatherCatV1.13B119,2013-05-04 21:57:00,
2013-05-04 17:02:00,83.3,29.1,29.86,West,262,2.0,2.0,14,0.00,,,0.00,WeatherCatV1.13B119,2013-05-04 22:02:00,
2013-05-04 17:07:00,84.0,29.7,29.86,SW,218,5.0,5.0,14,0.00,,,0.00,WeatherCatV1.13B119,2013-05-04 22:07:00,
2013-05-04 17:12:00,84.6,30.1,29.86,ESE,110,1.0,2.0,14,0.00,,,0.00,WeatherCatV1.13B119,2013-05-04 22:12:00,
2013-05-04 17:17:00,85.4,28.9,29.86,North,354,1.0,3.0,13,0.00,,,0.00,WeatherCatV1.13B119,2013-05-04 22:17:00,
2013-05-04 17:22:00,85.5,29.0,29.86,North,10,2.0,3.0,13,0.00,,,0.00,WeatherCatV1.13B119,2013-05-04 22:22:00,
2013-05-04 17:27:00,86.0,29.4,29.86,North,5,0.0,1.0,13,0.00,,,0.00,WeatherCatV1.13B119,2013-05-04 22:27:00,
2013-05-04 17:32:00,86.3,27.7,29.86,West,263,1.0,1.0,12,0.00,,,0.00,WeatherCatV1.13B119,2013-05-04 22:32:00,
2013-05-04 17:37:00,85.8,29.3,29.86,West,274,2.0,3.0,13,0.00,,,0.00,WeatherCatV1.13B119,2013-05-04 22:37:00,
2013-05-04 17:42:00,85.2,26.8,29.86,NE,43,1.0,3.0,12,0.00,,,0.00,WeatherCatV1.13B119,2013-05-04 22:42:00,
2013-05-04 17:47:00,84.1,29.7,29.86,WNW,283,0.0,3.0,14,0.00,,,0.00,WeatherCatV1.13B119,2013-05-04 22:47:00,
2013-05-04 17:52:00,83.4,27.4,29.85,ENE,64,1.0,1.0,13,0.00,,,0.00,WeatherCatV1.13B119,2013-05-04 22:52:00,
2013-05-04 17:57:00,83.0,28.9,29.85,WNW,282,1.0,2.0,14,0.00,,,0.00,WeatherCatV1.13B119,2013-05-04 22:57:00,
2013-05-04 18:02:00,82.4,28.4,29.85,NNW,328,0.0,2.0,14,0.00,,,0.00,WeatherCatV1.13B119,2013-05-04 23:02:00,
2013-05-04 18:07:00,83.5,29.3,29.85,NE,46,0.0,1.0,14,0.00,,,0.00,WeatherCatV1.13B119,2013-05-04 23:07:00,
2013-05-04 18:12:00,84.1,29.7,29.85,NW,316,0.0,2.0,14,0.00,,,0.00,WeatherCatV1.13B119,2013-05-04 23:12:00,
2013-05-04 18:17:00,83.3,27.3,29.85,NNW,339,1.0,1.0,13,0.00,,,0.00,WeatherCatV1.13B119,2013-05-04 23:17:00,
2013-05-04 18:22:00,82.3,31.6,29.85,West,270,0.0,0.0,16,0.00,,,0.00,WeatherCatV1.13B119,2013-05-04 23:22:00,
2013-05-04 18:27:00,81.8,31.2,29.85,NNE,13,0.0,1.0,16,0.00,,,0.00,WeatherCatV1.13B119,2013-05-04 23:27:00,
2013-05-04 18:32:00,81.4,29.3,29.85,WNW,302,0.0,1.0,15,0.00,,,0.00,WeatherCatV1.13B119,2013-05-04 23:32:00,
2013-05-04 18:37:00,81.0,30.6,29.85,WNW,297,0.0,1.0,16,0.00,,,0.00,WeatherCatV1.13B119,2013-05-04 23:37:00,
2013-05-04 18:42:00,80.6,30.2,29.85,WNW,297,0.0,1.0,16,0.00,,,0.00,WeatherCatV1.13B119,2013-05-04 23:42:00,
2013-05-04 18:47:00,80.4,31.6,29.85,WNW,297,0.0,0.0,17,0.00,,,0.00,WeatherCatV1.13B119,2013-05-04 23:47:00,
2013-05-04 18:52:00,80.2,31.4,29.85,NE,46,0.0,0.0,17,0.00,,,0.00,WeatherCatV1.13B119,2013-05-04 23:52:00,
2013-05-04 18:57:00,80.1,32.8,29.85,NE,46,0.0,0.0,18,0.00,,,0.00,WeatherCatV1.13B119,2013-05-04 23:57:00,
2013-05-04 19:02:00,80.0,32.7,29.85,NE,46,0.0,0.0,18,0.00,,,0.00,WeatherCatV1.13B119,2013-05-05 00:02:00,
2013-05-04 19:07:00,79.8,33.9,29.85,NE,46,0.0,0.0,19,0.00,,,0.00,WeatherCatV1.13B119,2013-05-05 00:07:00,
2013-05-04 19:12:00,79.5,34.9,29.85,NE,46,0.0,0.0,20,0.00,,,0.00,WeatherCatV1.13B119,2013-05-05 00:12:00,
2013-05-04 19:17:00,78.8,35.5,29.85,NE,46,0.0,0.0,21,0.00,,,0.00,WeatherCatV1.13B119,2013-05-05 00:17:00,
2013-05-04 19:22:00,77.8,34.7,29.85,NE,46,0.0,0.0,21,0.00,,,0.00,WeatherCatV1.13B119,2013-05-05 00:22:00,
2013-05-04 19:27:00,76.8,37.3,29.85,NE,46,0.0,0.0,24,0.00,,,0.00,WeatherCatV1.13B119,2013-05-05 00:27:00,
2013-05-04 19:32:00,75.9,35.4,29.85,NE,46,0.0,0.0,23,0.00,,,0.00,WeatherCatV1.13B119,2013-05-05 00:32:00,
2013-05-04 19:37:00,75.2,37.9,29.85,NE,46,0.0,0.0,26,0.00,,,0.00,WeatherCatV1.13B119,2013-05-05 00:37:00,
2013-05-04 19:42:00,74.5,38.3,29.85,NE,46,0.0,0.0,27,0.00,,,0.00,WeatherCatV1.13B119,2013-05-05 00:42:00,
2013-05-04 19:47:00,73.9,36.8,29.86,NE,46,0.0,0.0,26,0.00,,,0.00,WeatherCatV1.13B119,2013-05-05 00:47:00,
2013-05-04 19:52:00,73.5,38.4,29.86,NE,46,0.0,0.0,28,0.00,,,0.00,WeatherCatV1.13B119,2013-05-05 00:52:00,
2013-05-04 19:57:00,73.0,38.0,29.86,NE,46,0.0,0.0,28,0.00,,,0.00,WeatherCatV1.13B119,2013-05-05 00:57:00,
2013-05-04 20:02:00,72.4,38.3,29.86,NE,46,0.0,0.0,29,0.00,,,0.00,WeatherCatV1.13B119,2013-05-05 01:02:00,
2013-05-04 20:07:00,71.8,39.5,29.86,NE,46,0.0,0.0,31,0.00,,,0.00,WeatherCatV1.13B119,2013-05-05 01:07:00,
2013-05-04 20:12:00,70.8,40.3,29.86,NE,46,0.0,0.0,33,0.00,,,0.00,WeatherCatV1.13B119,2013-05-05 01:12:00,
2013-05-04 20:17:00,70.0,38.8,29.86,NE,46,0.0,0.0,32,0.00,,,0.00,WeatherCatV1.13B119,2013-05-05 01:17:00,
2013-05-04 20:22:00,69.3,39.0,29.87,NE,46,0.0,0.0,33,0.00,,,0.00,WeatherCatV1.13B119,2013-05-05 01:22:00,
2013-05-04 20:27:00,68.7,39.2,29.87,NE,46,0.0,0.0,34,0.00,,,0.00,WeatherCatV1.13B119,2013-05-05 01:27:00,
2013-05-04 20:32:00,68.0,39.3,29.87,NE,46,0.0,1.0,35,0.00,,,0.00,WeatherCatV1.13B119,2013-05-05 01:32:00,
2013-05-04 20:37:00,67.5,39.6,29.87,NE,46,0.0,0.0,36,0.00,,,0.00,WeatherCatV1.13B119,2013-05-05 01:37:00,
2013-05-04 20:42:00,66.8,39.7,29.88,NE,46,0.0,0.0,37,0.00,,,0.00,WeatherCatV1.13B119,2013-05-05 01:42:00,
2013-05-04 20:47:00,66.2,39.8,29.88,NE,46,0.0,0.0,38,0.00,,,0.00,WeatherCatV1.13B119,2013-05-05 01:47:00,
2013-05-04 20:52:00,65.6,39.3,29.88,NE,46,0.0,1.0,38,0.00,,,0.00,WeatherCatV1.13B119,2013-05-05 01:52:00,
2013-05-04 20:57:00,65.1,40.2,29.88,NNW,347,1.0,1.0,40,0.00,,,0.00,WeatherCatV1.13B119,2013-05-05 01:57:00,
2013-05-04 21:02:00,64.6,39.7,29.89,NNW,347,0.0,1.0,40,0.00,,,0.00,WeatherCatV1.13B119,2013-05-05 02:02:00,
2013-05-04 21:07:00,64.2,39.4,29.89,NNW,340,0.0,0.0,40,0.00,,,0.00,WeatherCatV1.13B119,2013-05-05 02:07:00,
2013-05-04 21:12:00,63.7,39.6,29.89,NNW,340,0.0,0.0,41,0.00,,,0.00,WeatherCatV1.13B119,2013-05-05 02:12:00,
2013-05-04 21:17:00,63.2,39.1,29.89,NNW,340,0.0,0.0,41,0.00,,,0.00,WeatherCatV1.13B119,2013-05-05 02:17:00,
2013-05-04 21:22:00,62.8,39.4,29.89,NNW,340,0.0,0.0,42,0.00,,,0.00,WeatherCatV1.13B119,2013-05-05 02:22:00,
2013-05-04 21:27:00,62.5,38.5,29.90,NNW,340,0.0,0.0,41,0.00,,,0.00,WeatherCatV1.13B119,2013-05-05 02:27:00,
2013-05-04 21:32:00,62.1,39.9,29.90,NNW,340,0.0,0.0,44,0.00,,,0.00,WeatherCatV1.13B119,2013-05-05 02:32:00,
2013-05-04 21:37:00,60.8,39.3,29.90,NNW,340,0.0,0.0,45,0.00,,,0.00,WeatherCatV1.13B119,2013-05-05 02:37:00,
2013-05-04 21:42:00,60.2,38.2,29.91,NNW,340,0.0,0.0,44,0.00,,,0.00,WeatherCatV1.13B119,2013-05-05 02:42:00,
2013-05-04 21:47:00,60.1,39.8,29.92,NNW,340,0.0,0.0,47,0.00,,,0.00,WeatherCatV1.13B119,2013-05-05 02:47:00,
2013-05-04 21:52:00,59.9,39.6,29.92,NNW,340,0.0,0.0,47,0.00,,,0.00,WeatherCatV1.13B119,2013-05-05 02:52:00,
2013-05-04 21:57:00,59.5,38.7,29.92,NNW,340,0.0,0.0,46,0.00,,,0.00,WeatherCatV1.13B119,2013-05-05 02:57:00,
2013-05-04 22:02:00,59.2,39.0,29.92,NNW,340,0.0,0.0,47,0.00,,,0.00,WeatherCatV1.13B119,2013-05-05 03:02:00,
2013-05-04 22:07:00,58.8,38.6,29.92,NNW,340,0.0,0.0,47,0.00,,,0.00,WeatherCatV1.13B119,2013-05-05 03:07:00,
2013-05-04 22:12:00,58.6,38.4,29.92,NNW,340,0.0,0.0,47,0.00,,,0.00,WeatherCatV1.13B119,2013-05-05 03:12:00,
2013-05-04 22:17:00,58.3,38.2,29.93,NNW,340,0.0,0.0,47,0.00,,,0.00,WeatherCatV1.13B119,2013-05-05 03:17:00,
2013-05-04 22:22:00,58.2,37.5,29.93,NNW,340,0.0,0.0,46,0.00,,,0.00,WeatherCatV1.13B119,2013-05-05 03:22:00,
2013-05-04 22:27:00,58.1,37.4,29.93,NNW,340,0.0,0.0,46,0.00,,,0.00,WeatherCatV1.13B119,2013-05-05 03:27:00,
2013-05-04 22:32:00,57.9,37.2,29.94,NNW,340,0.0,0.0,46,0.00,,,0.00,WeatherCatV1.13B119,2013-05-05 03:32:00,
2013-05-04 22:37:00,57.8,37.7,29.94,NNW,340,0.0,0.0,47,0.00,,,0.00,WeatherCatV1.13B119,2013-05-05 03:37:00,
2013-05-04 22:42:00,57.4,38.4,29.94,NNW,340,0.0,0.0,49,0.00,,,0.00,WeatherCatV1.13B119,2013-05-05 03:42:00,
2013-05-04 22:47:00,56.8,38.4,29.94,NNW,340,0.0,0.0,50,0.00,,,0.00,WeatherCatV1.13B119,2013-05-05 03:47:00,
2013-05-04 22:52:00,56.6,38.7,29.95,NNW,340,0.0,0.0,51,0.00,,,0.00,WeatherCatV1.13B119,2013-05-05 03:52:00,
2013-05-04 22:57:00,56.7,41.6,29.95,NNW,340,0.0,0.0,57,0.00,,,0.00,WeatherCatV1.13B119,2013-05-05 03:57:00,
2013-05-04 23:01:00,57.0,43.3,29.95,NNE,18,0.0,0.0,60,0.00,,,0.00,WeatherCatV1.13B119,2013-05-05 04:01:00,
2013-05-04 23:06:00,57.5,43.7,29.95,NNE,18,0.0,0.0,60,0.00,,,0.00,WeatherCatV1.13B119,2013-05-05 04:06:00,
2013-05-04 23:11:00,57.6,43.4,29.95,North,352,0.0,0.0,59,0.00,,,0.00,WeatherCatV1.13B119,2013-05-05 04:11:00,
2013-05-04 23:16:00,57.6,43.8,29.95,North,352,0.0,0.0,60,0.00,,,0.00,WeatherCatV1.13B119,2013-05-05 04:16:00,
2013-05-04 23:21:00,57.5,43.3,29.95,North,352,0.0,0.0,59,0.00,,,0.00,WeatherCatV1.13B119,2013-05-05 04:21:00,
2013-05-04 23:26:00,57.4,43.2,29.95,West,259,0.0,0.0,59,0.00,,,0.00,WeatherCatV1.13B119,2013-05-05 04:26:00,
2013-05-04 23:31:00,56.9,41.8,29.96,West,279,0.0,0.0,57,0.00,,,0.00,WeatherCatV1.13B119,2013-05-05 04:31:00,
2013-05-04 23:36:00,56.6,41.1,29.96,West,279,0.0,0.0,56,0.00,,,0.00,WeatherCatV1.13B119,2013-05-05 04:36:00,
2013-05-04 23:41:00,56.7,41.2,29.96,West,279,0.0,0.0,56,0.00,,,0.00,WeatherCatV1.13B119,2013-05-05 04:41:00,
2013-05-04 23:46:00,56.9,41.8,29.97,West,259,0.0,0.0,57,0.00,,,0.00,WeatherCatV1.13B119,2013-05-05 04:46:00,
2013-05-04 23:51:00,56.6,41.1,29.97,West,274,0.0,0.0,56,0.00,,,0.00,WeatherCatV1.13B119,2013-05-05 04:51:00,
2013-05-04 23:56:00,56.1,40.6,29.97,West,274,0.0,0.0,56,0.00,,,0.00,WeatherCatV1.13B119,2013-05-05 04:56:00,